Tracking 27422 objects as of 30-May-2023
HD Live streaming from Space Station
objects crossing your sky now

USA 43

Track USA 43 now!
USA 43 is classified as:


NORAD ID: 20202
Int'l Code: 1989-069A
Perigee: 36,205.9 km
Apogee: 36,325.5 km
Inclination: 14.0 °
Period: 1,460.3 minutes
Semi major axis: 42636 km
RCS: Unknown
Launch date: September 4, 1989
Source: United States (US)
Launch site: AIR FORCE EASTERN TEST RANGE (AFETR)
Your satellite tracking list
Your tracking list is empty




NASA's NSSDC Master Catalog

Two Line Element Set (TLE):
1 20202U 89069A   23150.22202213 -.00000065  00000-0  00000-0 0  9995
2 20202  14.0052 344.2566 0014031 229.4051 144.6716  0.98611461 14822
Source of the keplerian elements: McCants